Location: New Plymouth
(39.0670°S, 174.0830°E)
Time: 19:41:28
(UTC+13:00)

Aureole 3 Rocket - Pass Details

Date: 24 January 2019
Orbit: 399 x 1742 km, 82.5° (Epoch: 19 February)

Event Time Altitude Azimuth Distance (km) Brightness Sun altitude
Rises 21:43:08 0° 186° (S) 2,463 6.8 -10.3°
Reaches altitude 10° 21:44:59 10° 185° (S) 1,661 5.9 -10.6°
Maximum altitude 21:48:32 80° 97° (E) 571 2.8 -11.2°
Drops below altitude 10° 21:53:07 10° 9° (N) 2,145 5.4 -11.9°
Enters shadow 21:53:50 - 9° (N) 2,443 5.7 -12.0°
